CAPE
0 0 0 0 0 0 0 0 0 0 0 0 0 0 0 10 8 5 59 75 190 384 494 580 484 432 265 192 98 123 70 59 23 8 2 6 3 8 132 51 10 6 5 20 19 14 2 0 0
0 0 0 0 0 0 0 0 0 0 0 0 0 0 0 18 0 40 61 83 183 345 532 529 312 258 153 152 241 124 32 10 2 3 10 6 11 8 42 31 23 14 11 18 15 13 0 0 0
0 0 0 0 0 0 0 0 0 0 0 0 0 0 0 0 1 47 92 132 274 343 401 428 255 111 105 162 369 220 37 4 6 6 10 2 6 31 6 13 17 16 10 13 11 7 1 0 0
0 0 0 0 0 0 0 0 0 0 0 0 0 0 0 0 1 31 80 154 181 168 178 284 238 163 185 180 475 247 91 0 4 3 10 8 5 10 11 17 12 13 12 5 5 8 1 0 0
0 0 0 0 0 0 0 0 0 0 0 0 0 0 0 3 32 20 42 32 66 124 122 301 217 119 76 170 402 222 26 0 12 5 0 0 12 15 19 13 1 8 4 3 0 0 0 0 0
0 0 0 0 0 0 0 0 0 0 0 0 0 0 0 4 4 3 10 38 104 90 114 248 138 76 57 97 191 52 0 0 4 0 8 19 7 2 0 1 3 3 1 0 0 0 0 0 0
0 0 0 0 0 0 0 0 0 0 0 0 0 0 1 3 4 10 13 41 58 37 65 221 158 31 0 0 35 19 0 0 0 6 7 12 13 0 0 0 6 2 0 0 0 0 0 0 0
0 0 0 0 0 0 0 0 0 0 0 0 0 0 0 1 3 13 10 13 10 60 74 219 158 18 4 5 0 0 0 0 0 4 1 3 3 0 0 0 1 0 0 0 0 0 0 0 0
0 0 0 0 0 0 0 0 0 0 0 0 0 0 0 3 4 6 3 5 3 5 85 200 125 21 8 16 5 0 0 0 0 0 0 1 8 10 8 0 0 0 0 0 0 0 0 0 0
0 0 0 0 0 0 0 0 0 0 0 0 0 0 1 4 1 2 3 2 0 2 32 96 8 4 4 11 14 5 0 0 2 4 0 1 1 0 0 0 0 0 0 0 0 0 0 0 0
0 0 0 0 0 0 0 0 0 0 0 0 0 0 1 3 4 2 3 1 3 0 14 59 2 2 0 0 3 0 0 0 0 0 0 0 0 0 0 0 0 0 0 0 0 0 0 0 0
0 0 0 0 0 0 0 0 0 0 0 0 0 0 0 2 1 2 2 1 0 1 7 26 14 2 0 0 0 0 0 0 0 0 0 0 0 0 0 0 0 0 0 0 0 0 0 0 0
0 0 0 0 0 0 0 0 0 0 0 0 0 0 0 0 0 1 4 0 0 0 7 10 10 5 0 0 0 0 0 0 0 0 0 0 0 0 0 0 0 0 0 0 0 0 0 0 0
0 0 0 0 0 0 0 0 0 0 0 0 0 0 0 0 0 0 2 0 0 0 1 1 7 4 0 0 0 0 0 0 0 0 0 0 0 0 0 0 0 0 0 0 0 0 0 0 0
0 0 0 0 0 0 0 0 0 0 0 0 0 0 0 0 1 1 0 0 0 0 2 2 1 1 1 0 0 0 0 0 0 0 0 0 0 0 0 0 0 0 0 0 0 0 0 0 0
0 0 0 0 0 0 0 0 0 0 0 0 0 0 0 0 0 1 0 0 0 0 0 0 1 2 2 4 1 0 0 0 0 0 0 0 0 0 0 0 0 0 0 0 0 2 0 3 4
0 0 0 0 0 0 0 0 0 0 0 0 0 0 0 0 0 0 0 0 0 0 0 0 0 0 1 0 0 0 0 0 0 0 0 0 0 0 0 1 0 0 0 2 4 3 7 12 14
0 0 0 0 0 0 0 0 0 0 0 0 0 0 0 0 0 0 0 0 0 0 0 0 0 0 0 0 1 0 1 0 0 0 3 0 0 0 0 0 0 0 0 1 2 3 15 11 15
0 0 0 0 0 0 0 0 0 0 0 0 0 0 0 0 0 0 0 0 0 0 0 0 0 0 0 0 0 0 0 0 0 1 1 0 1 1 0 0 0 0 2 5 12 15 17 12 7
0 0 0 0 0 0 0 0 0 0 0 0 0 0 0 0 0 0 0 0 0 0 0 0 0 0 0 0 0 0 0 1 1 3 2 4 4 5 2 1 2 3 9 13 15 19 14 5 4
0 1 0 0 0 0 0 0 0 0 0 0 0 0 0 0 0 0 0 0 0 0 0 0 0 0 0 0 0 2 6 13 15 12 12 17 14 10 13 9 9 22 27 28 29 20 13 5 1
1 0 0 0 0 0 0 0 0 0 0 0 0 0 0 0 0 0 0 0 0 0 0 10 0 0 0 0 0 0 1 1 3 8 13 13 21 18 23 16 28 36 33 31 30 23 12 7 1
0 0 0 0 0 0 0 0 0 0 0 0 0 0 0 0 0 0 0 0 0 0 0 0 0 0 0 0 0 0 0 1 0 7 9 6 8 31 34 37 34 29 32 28 11 0 0 0 0
0 0 0 0 0 0 0 0 0 0 0 0 0 0 0 0 0 0 0 0 0 0 0 0 0 0 0 0 0 0 0 0 1 9 14 2 6 13 28 30 24 20 13 7 0 0 0 0 0
0 0 0 0 0 0 0 0 0 0 0 0 0 0 0 0 0 0 0 0 0 0 0 0 0 0 0 4 13 12 7 4 0 7 6 2 0 0 1 6 5 2 0 0 0 0 0 0 0
0 1 0 0 0 0 0 0 0 0 0 0 0 0 0 0 0 0 0 0 0 0 0 0 0 0 0 0 0 14 20 13 5 2 9 0 0 0 0 0 0 0 0 0 0 0 0 0 0
1 0 0 0 0 0 0 0 0 0 0 0 0 0 0 0 0 0 0 0 0 0 0 0 0 0 0 0 0 0 2 1 8 1 5 0 0 0 0 0 0 0 0 0 0 0 0 0 0
0 0 0 0 0 0 0 0 0 0 0 0 0 0 0 0 0 0 0 0 0 0 0 0 0 0 0 0 0 0 1 2 2 3 1 0 0 0 0 0 0 0 0 0 0 0 0 0 0
0 1 0 0 0 0 0 0 0 0 0 0 0 0 0 0 0 0 0 0 0 0 0 0 0 0 0 0 0 0 1 2 1 1 0 0 0 0 0 0 0 0 0 0 0 0 0 0 0
0 0 0 0 0 0 0 0 0 0 0 0 0 0 0 0 0 0 0 0 0 0 0 0 0 0 0 0 0 0 0 0 0 0 0 0 0 0 0 0 0 0 0 0 0 0 0 0 0
CIN
0 0 0 0 0 0 0 0 0 0 0 0 0 0 0 -30 -22 -11 -71 -78 -36 -3 0 0 -4 -25 -90 -119 -164 -117 -123 -108 -169 -144 -44 0 -1 -174 -94 -109 -4 -1 0 0 0 0 0 0 0
0 0 0 0 0 0 0 0 0 0 0 0 0 0 0 -32 0 -150 -75 -68 -28 -4 0 0 -48 -83 -135 -133 -97 -133 -162 -178 0 0 0 -1 -90 -3 -171 -101 -48 0 0 0 0 0 0 0 0
0 0 0 0 0 0 0 0 0 0 0 0 0 0 0 0 0 -122 -74 -64 -6 0 -1 0 -50 -122 -145 -115 -65 -95 -176 -1 -1 0 0 0 -2 -41 -9 -5 -5 -2 0 0 0 0 0 0 0
0 0 0 0 0 0 0 0 0 0 0 0 0 0 0 0 0 -111 -75 -42 -28 -31 -21 -16 -37 -94 -82 -88 -32 -77 -142 0 -1 -1 0 -1 -2 -7 -5 -5 -6 0 0 0 0 0 0 0 0
0 0 0 0 0 0 0 0 0 0 0 0 0 0 0 0 -83 -55 -62 -81 -74 -40 -33 -7 -49 -133 -118 -78 -36 -71 -170 0 0 -1 0 0 -2 -4 -5 -5 -1 0 0 0 0 0 0 0 0
0 0 0 0 0 0 0 0 0 0 0 0 0 0 0 0 0 -3 -1 -34 -24 -43 -36 -24 -68 -75 -87 -107 -48 -118 0 0 -1 0 -1 -3 -5 -3 0 0 0 0 0 0 0 0 0 0 0
0 0 0 0 0 0 0 0 0 0 0 0 0 0 0 -1 0 0 -18 -16 -25 -51 -43 -16 -49 -64 0 -2 -78 -86 0 0 0 -4 -7 -6 -9 0 0 -1 0 0 0 0 0 0 0 0 0
0 0 0 0 0 0 0 0 0 0 0 0 0 0 0 0 0 0 0 0 0 -26 -30 -16 -41 -43 0 0 0 0 0 0 0 -8 -14 -16 -12 0 0 0 0 0 0 0 0 0 0 0 0
0 0 0 0 0 0 0 0 0 0 0 0 0 0 0 0 0 0 0 0 -1 -1 -14 -8 -29 -13 -1 -1 -1 0 0 0 0 0 0 0 0 -1 -1 0 0 0 0 0 0 0 0 0 0
0 0 0 0 0 0 0 0 0 0 0 0 0 0 0 0 0 0 0 0 -2 -1 -24 -16 -46 -4 -1 0 0 0 0 0 0 0 0 -1 -1 0 0 0 0 0 0 0 0 0 0 0 0
0 0 0 0 0 0 0 0 0 0 0 0 0 0 0 0 0 0 0 0 0 0 -1 -43 -13 0 0 0 0 0 0 0 0 0 0 0 0 0 0 0 0 0 0 0 0 0 0 0 0
0 0 0 0 0 0 0 0 0 0 0 0 0 0 0 0 0 0 0 -1 0 -1 0 -68 -84 0 0 0 0 0 0 0 0 0 0 0 0 0 0 0 0 0 0 0 0 0 0 0 0
0 0 0 0 0 0 0 0 0 0 0 0 0 0 0 0 0 0 0 0 0 0 0 -68 0 0 0 0 0 0 0 0 0 0 0 0 0 0 0 0 0 0 0 0 0 0 0 0 0
0 0 0 0 0 0 0 0 0 0 0 0 0 0 0 0 0 0 0 0 0 -1 -1 -2 0 0 0 0 0 0 0 0 0 0 0 0 0 0 0 0 0 0 0 0 0 0 0 0 0
0 0 0 0 0 0 0 0 0 0 0 0 0 0 0 0 0 0 0 0 0 0 -1 0 -4 -5 0 0 0 0 0 0 0 0 0 0 0 0 0 0 0 0 0 0 0 0 0 0 0
0 0 0 0 0 0 0 0 0 0 0 0 0 0 0 0 0 0 0 0 0 0 0 0 0 0 0 0 -1 0 0 0 0 0 0 0 0 0 0 0 0 0 0 0 -2 -14 0 -8 -8
0 0 0 0 0 0 0 0 0 0 0 0 0 0 0 0 0 0 0 0 0 0 0 0 0 0 0 0 0 0 0 0 0 0 0 0 0 0 0 -5 -5 0 0 -21 -33 -24 -40 -6 0
0 0 0 0 0 0 0 0 0 0 0 0 0 0 0 0 0 0 0 0 0 0 0 0 0 0 0 0 0 0 0 0 0 0 -17 -4 0 0 0 0 -11 0 -10 -40 -38 -26 -24 -24 -11
0 0 0 0 0 0 0 0 0 0 0 0 0 0 0 0 0 0 0 0 0 0 0 0 0 0 0 0 0 0 0 0 -1 0 -11 0 -34 -52 0 -10 0 -7 -31 -30 -34 -32 -23 -20 -26
0 0 0 0 0 0 0 0 0 0 0 0 0 0 0 0 0 0 0 0 0 0 0 0 0 0 0 0 0 0 0 -1 -1 -10 -28 -38 -36 -46 -49 -45 -43 -40 -30 -22 -24 -24 -23 -34 -28
0 -1 0 0 0 0 0 0 0 0 0 0 0 0 0 0 0 0 0 0 0 0 0 0 0 0 0 0 0 0 0 0 -1 -10 -27 -29 -39 -35 -45 -46 -33 -23 -14 -9 -10 -18 -19 -16 -23
0 0 0 0 0 0 0 0 0 0 0 0 0 0 0 0 0 0 0 0 0 0 0 -300 0 0 0 0 0 0 0 0 -28 -12 -19 -29 -35 -30 -38 -32 -16 -12 -13 -13 -16 -23 -21 -21 -1
-5 0 0 0 0 0 0 0 0 0 0 0 0 0 0 0 0 0 0 0 0 0 0 0 0 0 0 0 0 0 0 -1 0 -28 -39 -29 -31 -18 -15 -20 -16 -15 -15 -22 -31 -38 -32 0 0
0 0 0 0 0 0 0 0 0 0 0 0 0 0 0 0 0 0 0 0 0 0 0 0 0 0 0 0 0 0 -1 -1 0 -32 -51 -44 -47 -46 -22 -28 -26 -27 -33 -41 0 0 0 0 0
0 -4 0 0 0 0 0 0 0 0 0 0 0 0 0 0 0 0 0 0 0 0 0 0 0 0 0 -135 -343 -332 -162 -134 0 -38 -62 -44 0 0 -71 -62 -57 -60 0 0 0 0 0 0 0
0 -2 0 0 0 0 0 0 0 0 0 0 0 0 0 0 0 0 0 0 0 0 0 0 0 0 0 0 0 -371 -305 -266 -130 -23 -34 -9 0 -30 0 0 0 0 0 0 0 0 0 0 0
0 -4 0 0 0 0 0 0 0 0 0 0 0 0 0 0 0 0 0 0 0 0 0 0 0 0 0 0 0 0 -275 -36 -285 0 -21 0 0 0 0 0 0 0 0 0 0 0 0 0 0
0 0 0 0 0 0 0 0 0 0 0 0 0 0 0 0 0 0 0 0 0 0 0 0 0 0 0 0 0 0 0 0 0 0 0 0 0 0 0 0 0 0 0 0 0 0 0 0 0
0 0 0 0 0 0 0 0 0 0 0 0 0 0 0 0 0 0 0 0 0 0 0 0 0 0 0 0 0 0 0 0 -1 0 0 0 0 0 0 0 0 0 0 0 0 0 0 0 0
0 0 0 0 0 0 0 0 0 0 0 0 0 0 0 0 0 0 0 0 0 0 0 0 0 0 0 0 0 -1 0 0 0 0 0 0 0 0 0 0 0 0 0 0 0 0 0 0 0
Wind_Speed
21 20 18 18 20 20 20 19 16 13 12 13 14 13 14 16 15 16 16 11 16 15 15 12 9 11 14 15 13 8 8 6 8 9 11 14 16 20 22 22 24 24 24 24 24 24 24 26 27
20 18 17 18 21 22 19 16 14 12 12 13 14 14 14 14 16 18 21 19 18 17 14 9 7 9 15 13 11 7 12 11 10 10 13 16 20 21 21 21 22 24 23 22 24 25 26 27 27
17 17 18 20 20 22 20 16 12 11 11 12 13 14 13 13 15 20 17 21 20 20 20 9 8 14 13 15 12 10 11 9 11 12 14 17 17 20 21 21 21 22 23 23 24 26 27 27 28
17 16 16 23 20 19 18 16 13 7 11 11 12 13 13 13 16 19 19 21 21 22 23 18 25 11 5 10 14 10 5 8 9 13 16 19 19 19 19 21 20 20 22 24 25 26 26 27 27
16 18 21 22 21 18 20 18 11 6 10 9 10 11 12 12 19 18 20 19 22 27 27 29 22 13 8 4 8 5 6 7 9 14 17 18 18 18 18 18 20 22 23 24 24 24 26 26 26
19 20 23 24 21 19 20 17 9 10 11 9 10 10 11 12 19 21 22 21 22 30 29 27 23 14 10 4 3 4 8 10 13 16 15 19 18 15 15 17 20 22 22 22 23 24 25 25 26
21 22 24 21 22 20 18 10 7 9 11 11 10 10 12 7 23 21 25 27 27 28 30 29 25 18 11 7 4 5 9 11 12 11 10 13 15 15 17 18 20 20 20 22 22 23 24 24 25
19 21 23 22 20 20 15 11 13 11 12 10 10 12 10 12 21 24 25 26 26 28 30 29 5 12 10 6 5 6 6 8 9 9 10 11 13 15 17 18 16 19 21 22 22 23 23 23 24
18 26 26 23 20 19 13 14 13 14 11 11 10 14 14 6 4 2 22 24 26 25 24 22 12 11 11 5 5 5 6 6 8 8 7 6 11 15 12 12 15 17 20 21 21 21 22 22 23
22 29 25 20 20 19 16 16 11 14 14 14 9 11 7 3 7 12 30 27 32 30 23 12 6 4 4 5 5 4 4 5 9 11 12 9 10 8 11 13 16 17 19 19 19 20 20 20 21
24 30 23 21 20 20 18 18 13 15 19 13 6 5 5 2 4 27 31 31 30 21 13 3 3 2 2 2 3 5 12 13 15 13 15 15 11 10 12 17 18 17 17 17 18 19 20 20 20
26 27 25 20 19 19 19 17 20 19 19 16 9 5 7 7 7 9 30 31 23 7 10 6 4 5 4 5 4 7 14 17 16 16 16 14 12 11 14 16 15 16 16 17 17 18 19 19 20
29 24 22 20 17 18 20 22 22 25 19 17 5 3 7 7 4 6 18 14 26 29 29 11 7 7 5 3 8 14 16 15 16 18 16 14 12 9 13 13 14 14 15 16 17 18 18 19 19
31 28 26 26 28 21 22 23 20 20 13 14 5 1 4 8 8 4 11 10 20 15 26 19 9 4 4 3 8 15 16 17 18 18 17 16 9 11 12 12 13 13 15 16 17 17 18 18 18
27 28 32 31 27 29 25 27 25 21 15 15 10 5 2 6 5 8 7 6 7 7 6 10 16 12 10 10 12 11 12 18 18 18 15 11 9 9 10 11 12 13 14 14 14 15 17 18 18
31 31 26 28 28 31 28 38 31 21 20 20 15 11 5 5 7 8 8 8 9 7 8 7 9 12 19 21 17 16 17 18 17 14 11 6 7 8 9 11 12 13 13 14 15 17 18 19 20
35 33 31 34 31 30 33 36 30 22 26 27 21 16 11 7 7 8 9 9 9 9 9 8 7 7 7 11 15 20 22 20 12 9 6 4 5 7 10 11 12 12 12 14 16 18 19 20 22
31 34 32 37 32 33 43 46 39 33 30 30 29 26 20 11 10 12 11 10 9 10 9 9 8 8 8 15 16 21 24 23 17 11 7 4 4 4 6 9 9 10 12 14 15 17 19 20 21
36 35 36 34 27 29 40 44 47 43 37 34 30 29 27 21 18 14 14 14 13 11 11 11 10 10 9 12 19 24 24 22 17 10 8 6 5 3 3 6 7 9 11 14 15 17 18 19 21
35 36 36 28 27 32 36 44 44 50 50 42 37 32 26 25 20 17 17 15 14 14 13 12 12 11 11 14 18 23 23 21 13 12 11 8 5 4 4 6 8 10 12 12 13 15 18 18 20
39 40 35 33 27 31 35 46 48 49 53 51 44 37 33 23 19 16 17 17 18 16 16 15 15 15 16 17 18 21 23 22 18 17 13 9 7 6 6 7 9 10 11 13 14 14 15 17 17
42 32 29 32 33 38 29 43 41 38 46 45 42 37 31 28 23 19 17 17 18 18 22 22 20 18 18 17 17 17 20 19 19 15 11 9 9 8 7 8 8 10 12 14 14 14 14 14 14
35 24 26 29 34 35 37 38 38 33 37 35 34 35 32 28 25 21 20 20 21 23 21 23 23 22 21 20 19 21 20 21 19 16 13 11 11 10 9 10 11 12 13 14 12 13 13 12 13
20 23 24 27 32 47 41 38 47 40 37 32 30 31 34 32 30 27 24 24 23 24 24 23 23 23 21 20 20 21 23 21 21 18 15 13 13 11 13 13 14 13 13 12 12 12 12 11 12
28 29 33 37 38 44 31 38 51 31 33 33 31 28 26 29 36 34 30 26 25 22 23 24 24 23 23 22 22 22 23 22 20 18 17 15 14 15 12 13 13 13 12 12 11 12 11 10 10
30 35 37 41 42 42 33 44 39 37 40 39 31 30 29 27 29 34 32 29 27 24 23 24 24 24 24 24 24 24 23 23 22 21 19 18 16 14 12 11 11 11 11 11 11 11 9 8 9
34 37 29 31 30 36 39 43 43 43 42 38 35 33 34 29 30 32 35 36 32 29 27 25 25 26 26 25 26 25 24 23 23 23 21 19 17 15 13 11 10 10 10 10 10 9 7 7 9
31 24 35 34 42 46 43 43 42 39 37 30 32 31 33 31 29 27 29 34 36 35 33 30 28 27 27 27 27 27 27 26 25 23 21 20 19 16 14 12 11 10 9 10 9 7 7 9 11
28 34 32 31 38 41 44 43 31 31 32 31 29 29 30 28 25 22 26 31 36 35 34 34 32 29 29 29 29 28 27 27 26 24 22 21 19 17 15 13 12 11 10 10 8 8 7 9 10
26 30 29 37 40 41 43 53 26 22 23 21 23 23 25 26 27 28 28 30 31 37 36 35 34 34 30 29 29 29 27 25 25 24 23 22 20 18 16 14 13 12 11 10 9 8 8 9 10
Wind_Direction
284 285 288 284 273 278 283 293 316 346 30 37 56 67 60 41 55 47 80 71 99 92 89 73 46 48 53 54 40 15 19 5 11 17 30 40 44 51 55 50 51 49 45 45 44 39 36 38 37
282 283 282 281 271 273 286 299 315 339 13 49 53 56 56 48 49 71 101 105 103 99 89 67 47 44 61 51 42 22 39 38 32 34 43 50 59 58 55 49 45 49 45 39 42 47 45 43 40
282 282 271 268 272 273 284 296 313 328 24 55 55 41 46 49 67 104 93 112 108 105 108 70 58 69 58 66 47 44 39 34 40 42 48 55 49 51 54 52 47 46 45 42 44 52 51 47 47
278 277 279 260 271 279 282 290 295 350 335 40 51 43 32 357 96 123 106 114 113 116 119 103 122 224 25 43 57 53 14 29 34 46 56 60 57 50 44 51 42 38 44 48 48 53 56 57 53
280 272 262 262 268 278 271 281 300 336 323 40 41 37 21 46 170 112 118 116 121 135 140 153 198 221 48 318 48 30 22 26 36 51 60 59 51 46 42 41 46 53 52 50 48 44 49 53 47
264 264 259 257 266 274 273 282 295 301 313 2 15 25 24 283 122 119 124 122 129 159 173 187 199 223 238 281 327 11 33 42 54 62 51 67 55 43 36 39 50 53 49 43 43 45 44 39 49
260 258 258 265 266 270 278 298 295 298 308 326 360 14 344 35 144 122 136 184 198 193 180 178 193 215 236 260 306 2 41 47 56 48 34 38 48 42 43 45 51 48 45 47 45 43 44 36 40
263 261 257 264 265 270 281 283 284 290 301 342 339 344 3 111 131 138 202 205 203 196 185 184 251 237 246 277 321 6 15 38 42 38 38 36 38 42 46 47 31 44 56 55 49 48 48 41 37
263 253 251 256 261 270 278 275 279 293 312 323 323 305 298 84 88 225 217 214 210 213 212 214 236 242 249 297 330 357 17 28 39 34 22 344 23 42 12 9 21 35 53 60 49 41 39 47 42
253 249 251 261 265 271 270 271 278 281 288 299 333 321 350 59 111 117 190 213 196 205 219 236 242 269 299 304 28 354 5 285 258 238 238 256 257 298 7 19 31 42 50 50 44 31 37 47 40
251 248 252 262 266 270 271 269 281 279 274 297 339 51 79 82 127 158 202 203 209 227 238 179 139 266 314 353 16 302 249 238 229 238 230 228 262 334 14 81 92 58 52 45 40 34 30 31 35
249 252 250 260 271 269 270 277 271 272 282 297 319 80 105 120 136 135 210 206 227 222 143 151 210 245 264 277 292 272 245 235 238 234 230 244 266 288 49 74 56 47 26 30 28 31 30 29 27
246 248 254 256 269 275 277 271 270 265 281 292 328 67 121 129 156 242 240 243 225 220 181 146 228 243 248 255 262 249 243 249 244 235 246 263 284 3 57 37 34 32 30 26 23 22 21 22 25
245 248 254 254 252 272 276 272 276 278 285 288 296 292 131 143 149 206 248 240 237 241 227 233 149 174 238 251 259 249 250 249 243 248 256 262 343 50 53 46 39 29 15 13 16 19 20 22 21
251 249 250 250 252 257 274 264 265 280 284 278 281 278 216 157 170 173 175 212 215 222 216 240 244 246 251 256 257 263 267 252 254 260 275 309 351 39 29 32 28 18 17 21 26 25 16 15 18
245 248 247 250 250 253 265 252 262 283 275 271 274 276 261 207 186 188 178 178 168 184 175 184 242 249 248 246 255 262 261 260 268 281 306 16 31 26 18 9 8 7 9 12 13 9 8 8 5
242 246 249 250 255 256 254 255 262 280 270 267 269 271 270 257 219 200 194 187 183 186 179 185 192 198 231 260 263 260 254 263 285 302 325 13 17 7 355 355 354 1 4 2 360 0 1 357 358
239 243 252 250 256 255 251 248 258 263 269 267 264 265 268 262 245 245 232 224 218 205 208 216 210 215 241 263 266 262 258 262 277 292 309 333 355 7 6 3 1 360 355 354 354 354 354 356 356
243 246 247 251 258 259 253 253 251 255 260 263 266 265 263 266 265 251 242 241 235 229 218 211 209 223 236 255 261 259 261 267 279 288 297 304 314 333 356 353 356 352 347 346 350 350 352 353 354
244 246 247 255 261 260 261 257 259 253 249 256 260 263 266 264 262 255 247 235 218 221 225 217 225 224 231 254 261 264 267 272 280 284 289 291 292 295 308 322 329 334 337 341 345 348 347 350 352
241 243 246 254 262 267 268 261 257 256 250 250 256 261 262 262 258 249 243 235 242 229 223 226 235 240 247 254 261 266 270 275 278 285 288 288 281 281 287 302 315 322 327 333 338 343 344 344 352
241 250 250 254 259 262 267 267 264 265 255 254 255 258 260 260 260 253 240 231 223 228 249 249 248 245 248 246 254 256 265 270 275 279 281 282 282 281 283 295 304 314 322 326 332 337 340 343 346
247 249 250 257 258 265 262 268 269 263 264 261 253 257 259 257 255 251 241 237 242 249 243 249 251 250 250 249 250 258 261 269 277 277 272 274 285 288 287 294 303 309 314 320 326 333 338 342 343
234 249 259 262 262 257 259 262 257 256 265 271 268 262 258 256 255 255 255 253 249 251 250 250 248 247 243 242 241 252 259 263 270 274 271 274 284 290 296 299 303 306 310 314 321 328 333 337 344
239 238 247 251 252 255 264 258 239 266 271 271 273 270 268 259 256 256 255 253 251 243 244 249 247 245 245 243 245 248 254 258 260 264 268 265 273 287 288 296 298 300 306 311 317 323 328 335 343
235 236 243 250 252 256 262 257 265 263 266 272 278 277 278 275 263 256 254 253 251 242 242 246 247 248 246 247 247 252 252 258 260 263 269 263 264 273 282 291 296 299 303 307 313 320 325 337 344
238 239 250 256 263 261 261 265 272 272 270 274 275 276 278 283 275 264 257 257 256 255 249 245 249 252 252 250 254 254 254 254 260 264 265 266 266 270 273 281 289 296 298 301 308 310 317 331 339
241 241 246 253 255 259 262 265 266 275 282 281 279 281 282 279 286 272 262 259 259 262 261 259 256 254 254 256 255 257 258 260 263 265 263 264 266 264 266 272 281 287 293 297 299 298 310 321 330
238 243 251 257 256 259 263 265 276 282 286 286 288 288 290 288 294 286 270 267 264 263 261 261 260 258 258 258 259 260 261 261 262 262 262 264 262 258 261 263 269 275 284 287 280 286 298 311 322
249 246 247 253 256 259 265 259 277 294 314 313 304 301 301 300 295 290 281 273 271 265 262 261 261 260 259 259 259 261 261 261 260 260 263 262 258 255 252 257 261 267 279 269 262 270 287 300 311